Location: Warszawa
(52.2500°N, 21.0000°E)
Time: 08:44:22
(UTC+02:00)

Gurwin Techsat 1B - Pass Details

Date: 28 April 2024
Orbit: 811 x 812 km, 98.9° (Epoch: 20 May)

Event Time Altitude Azimuth Distance (km) Brightness Sun altitude
Rises 04:09:17 0° 17° (NNE) 3,349 12.8 -8.9°
Reaches altitude 10° 04:11:40 10° 21° (NNE) 2,413 12.1 -8.6°
Maximum altitude 04:16:59 65° 103° (ESE) 891 9.1 -7.9°
Drops below altitude 10° 04:22:15 10° 186° (S) 2,395 10.7 -7.3°
Sets 04:24:36 0° 189° (S) 3,322 11.4 -7.0°
